Presure
88 93 92 101 95 98 89 100 151 148 118 146 146 148 149 107 110 156 153 150 133 130 132 140 132 88 156 100 100 94 142 99 141 123 113 123 104 116 104 100 104 93 123 110 96 113 124 142 112
84 90 94 129 147 102 90 92 88 78 119 144 88 147 105 149 157 155 154 158 157 135 128 113 131 135 119 82 163 133 134 125 135 115 114 106 137 100 144 113 161 107 107 96 114 120 95 141 119
137 130 111 138 98 116 102 97 101 111 96 153 106 142 150 151 148 153 128 118 161 143 90 142 108 133 159 129 131 113 150 143 127 139 157 116 97 135 153 115 151 163 97 99 115 178 142 122 174
97 96 146 98 112 129 117 102 101 140 90 90 93 98 116 140 135 79 152 92 155 156 146 142 142 129 158 158 147 159 149 118 90 134 97 85 160 136 118 173 92 172 128 127 171 86 147 153 173
82 105 100 136 98 133 150 139 112 104 159 104 98 100 117 153 144 155 144 156 156 145 150 141 144 151 127 155 154 124 150 100 118 129 84 106 125 125 124 125 119 127 89 90 91 126 172 174 171
92 92 100 96 105 104 129 151 157 140 143 127 94 113 101 136 152 126 149 150 149 130 129 118 150 155 162 161 154 160 158 169 136 103 110 163 182 135 121 115 124 95 139 154 136 106 178 184 170
84 98 127 97 109 106 113 154 159 136 141 144 79 149 134 112 152 156 154 134 113 116 156 154 126 137 158 158 153 160 159 154 157 163 147 153 132 82 163 108 145 147 130 119 106 132 148 146 187
196 104 95 97 98 151 229 127 130 153 159 127 120 132 131 140 93 162 125 106 99 102 151 161 154 127 145 166 154 162 162 153 157 157 157 159 152 160 100 179 108 93 124 87 94 138 132 141 157
225 203 190 108 144 207 189 127 240 132 118 158 155 186 133 130 124 143 92 99 143 137 154 161 162 147 111 154 157 156 154 154 157 155 159 159 133 156 109 118 121 122 135 96 98 171 135 137 129
164 186 191 186 110 110 142 148 215 205 180 167 234 142 136 100 163 139 101 114 118 91 100 138 146 116 107 134 172 156 159 159 154 152 115 123 98 100 106 104 100 88 114 99 143 165 163 147 158
204 211 203 209 214 199 109 108 199 194 104 223 221 219 139 133 125 120 108 104 129 99 110 155 163 165 162 128 159 132 154 160 159 158 122 109 102 103 91 82 163 97 172 166 192 171 167 154 143
172 208 190 209 208 212 216 207 208 148 218 210 196 173 179 120 143 94 199 147 113 112 132 116 159 155 159 173 143 176 151 104 139 117 122 109 125 153 155 116 104 149 165 129 176 155 173 149 168
217 220 228 233 236 245 255 250 247 242 216 232 189 202 231 153 116 182 120 140 225 145 99 124 140 121 165 154 160 163 101 139 166 104 151 124 155 90 97 152 152 118 106 175 184 104 119 175 146
245 281 290 294 254 226 254 257 264 264 243 227 223 242 209 130 229 173 119 179 108 87 152 124 132 148 201 147 159 156 141 108 98 166 105 155 163 92 149 97 116 105 162 194 142 106 162 121 134
220 210 224 219 233 365 202 282 99 248 326 344 322 286 280 276 174 233 116 116 99 138 136 139 136 96 117 133 143 148 147 98 169 168 116 148 123 153 164 147 119 155 145 153 169 111 109 149 126
375 225 214 223 221 262 313 314 211 78 85 130 123 284 344 259 147 144 87 91 160 98 165 147 141 152 161 141 135 142 136 152 112 168 142 162 155 152 88 118 87 158 179 164 109 110 108 142 119
243 203 271 237 229 240 273 269 319 359 542 568 433 357 86 110 314 116 107 134 133 99 178 123 185 149 172 137 119 141 154 116 166 160 151 153 134 145 167 156 160 142 163 127 108 124 116 151 113
195 195 232 217 248 274 249 283 383 331 506 276 396 416 336 324 325 232 280 241 91 150 134 215 151 233 137 128 119 134 120 151 135 162 164 162 122 150 158 145 141 151 155 130 143 135 150 143 126
266 180 172 215 294 211 320 262 277 323 489 82 319 506 451 323 304 395 157 279 91 143 243 137 216 232 134 105 134 131 148 125 161 164 124 148 166 167 151 141 143 145 159 169 168 124 128 120 131
251 191 266 202 271 264 392 258 260 310 465 468 189 200 86 90 151 187 93 275 140 205 101 229 179 196 116 98 158 134 121 239 131 128 142 146 137 148 153 158 145 145 157 140 154 132 135 141 171
193 230 175 213 262 217 263 447 309 282 344 481 461 471 458 308 400 170 388 93 102 269 129 140 177 208 206 119 147 153 107 136 153 131 142 155 158 158 126 102 110 136 159 143 150 140 135 144 143
175 219 214 239 254 230 259 282 309 344 72 340 462 478 434 151 404 381 408 305 72 83 234 91 108 144 215 99 170 140 104 144 138 162 146 140 118 123 100 101 102 113 127 154 144 171 166 169 154
229 234 225 210 246 259 258 243 214 135 188 358 299 374 432 439 435 98 408 386 320 310 283 86 126 134 270 85 145 181 161 121 229 107 148 129 129 134 132 134 133 144 141 131 144 141 145 171 177
226 226 228 228 204 251 223 245 204 263 271 281 326 349 328 353 392 409 414 412 360 321 295 281 285 279 122 98 140 119 128 116 131 215 139 121 141 146 136 135 149 117 125 147 147 149 149 146 147
222 205 227 226 237 223 233 213 200 232 260 261 281 276 322 352 322 321 329 358 383 386 286 294 296 225 225 284 94 249 211 240 114 131 221 112 122 119 125 125 138 146 152 143 138 148 153 138 159
206 221 216 220 235 222 230 237 237 248 246 207 256 269 269 289 293 297 356 307 315 326 336 334 324 281 316 312 94 196 145 104 115 116 111 109 108 238 127 139 143 129 148 135 158 149 144 151 141
213 210 222 217 214 223 242 211 202 235 246 250 252 212 256 263 271 280 264 272 290 338 295 290 292 303 280 295 286 220 270 153 138 149 274 129 110 124 102 113 152 136 154 140 177 154 125 352 146
206 211 218 224 218 215 223 221 229 240 224 234 232 245 241 252 235 269 269 298 278 295 277 287 292 292 288 291 283 219 206 277 167 168 285 119 121 123 118 129 164 160 151 155 146 130 332 134 132
187 200 190 214 214 215 210 194 215 225 216 214 231 230 217 184 217 186 198 266 221 288 233 270 287 287 281 282 214 294 294 293 288 121 291 290 295 134 136 148 275 218 303 163 123 134 133 126 134
192 199 190 169 215 207 184 214 221 168 219 229 213 233 237 222 246 221 235 257 207 272 143 147 215 248 268 299 271 162 265 284 291 276 290 280 281 149 306 310 285 300 167 119 126 136 135 137 135
Wind_Speed
17 22 20 28 27 24 11 19 41 30 18 33 30 33 34 19 13 37 32 30 31 30 28 28 24 4 31 9 15 5 27 6 27 19 20 11 13 11 9 3 7 3 16 12 3 11 13 20 15
16 21 25 37 42 30 18 21 17 14 23 37 9 34 9 36 40 37 33 34 36 33 27 17 25 25 24 5 36 22 22 26 22 19 16 11 20 8 23 13 24 12 11 5 14 16 8 18 15
45 42 34 42 30 35 30 27 31 26 23 44 19 32 39 40 35 36 27 24 37 30 16 30 24 27 35 27 23 16 35 32 24 25 28 10 7 18 25 18 21 26 5 10 11 27 18 16 26
36 35 47 36 40 41 36 32 32 36 20 15 19 19 26 34 32 15 36 9 31 31 34 33 33 29 35 38 39 39 36 25 7 28 10 8 28 20 25 31 1 28 21 20 27 10 19 22 24
20 40 42 49 33 46 50 45 38 35 49 32 27 22 27 44 38 43 35 39 34 33 34 37 35 37 29 38 41 29 41 11 23 25 6 12 24 14 18 26 24 24 6 6 9 20 27 27 23
35 34 47 36 46 42 46 53 54 44 44 41 22 30 21 37 44 29 40 36 35 27 24 19 40 42 41 39 40 44 45 43 33 19 21 34 38 28 27 23 26 8 18 20 20 19 28 31 25
28 47 53 38 50 46 49 56 58 49 46 46 14 47 42 22 46 50 47 36 22 20 39 39 25 34 41 41 41 42 46 46 45 42 36 34 24 8 32 21 24 24 21 19 12 22 24 25 33
74 54 37 40 38 60 70 52 51 56 59 46 42 43 43 39 17 53 35 24 19 17 40 47 40 28 36 43 41 43 44 46 46 45 41 41 32 35 15 36 21 11 22 8 14 25 22 22 19
62 64 57 52 54 66 63 49 67 53 42 58 52 62 44 43 34 49 14 21 42 38 47 50 48 41 23 41 44 44 45 47 48 46 46 43 22 34 20 22 24 23 26 15 22 25 26 26 20
47 54 56 55 48 45 54 49 68 64 63 54 74 43 48 22 63 44 19 24 28 7 12 37 42 27 22 35 48 45 45 47 48 46 23 27 15 17 23 20 18 9 20 20 30 31 27 26 23
59 61 59 60 64 61 41 40 66 68 36 76 77 73 48 49 35 38 24 26 37 8 20 50 54 52 48 34 47 31 46 47 49 49 24 22 20 23 10 11 42 22 38 35 40 36 33 27 22
50 60 51 62 58 61 67 65 69 56 73 78 76 61 59 42 55 27 61 51 23 21 38 25 51 47 48 53 43 53 46 17 37 23 26 26 32 39 40 29 20 31 40 29 38 31 37 32 30
69 73 77 79 79 83 88 88 91 88 85 90 72 71 80 58 40 62 39 47 69 33 16 34 41 29 54 47 49 51 20 38 53 21 45 33 46 12 23 31 41 27 31 43 43 29 27 40 29
75 71 69 65 59 65 71 78 81 80 74 69 69 89 77 48 79 62 33 55 30 22 55 35 40 49 57 42 49 48 41 29 22 54 29 47 51 23 32 26 27 32 42 44 33 30 38 27 22
44 40 48 50 59 46 48 67 10 57 81 87 91 92 92 94 66 80 37 30 24 45 44 48 39 21 24 32 38 44 43 18 55 54 34 40 34 42 49 29 28 36 19 23 45 36 32 34 26
22 47 40 46 50 58 42 52 55 17 24 39 40 74 88 72 54 56 21 26 60 28 58 51 48 54 56 42 33 38 36 47 25 52 39 50 48 43 18 28 17 42 51 47 40 39 33 37 28
27 34 32 43 51 51 48 41 48 45 39 43 70 79 20 19 87 39 32 47 45 30 65 34 60 54 60 35 29 37 51 28 54 49 46 45 35 41 50 46 45 31 47 35 39 36 42 37 37
28 36 30 43 39 40 49 49 43 40 41 19 51 63 63 76 77 64 83 74 21 49 42 68 53 74 39 32 32 35 30 46 37 53 53 49 32 42 47 38 33 39 42 39 44 33 36 33 41
47 30 28 37 65 34 55 44 41 34 41 14 34 44 56 62 69 82 35 80 24 47 75 48 70 74 41 34 41 35 44 33 51 53 31 41 52 52 45 38 37 37 49 54 51 37 36 45 41
42 30 63 29 55 53 69 37 37 34 44 33 9 25 21 26 25 43 30 73 31 47 21 76 60 69 39 30 55 45 35 77 39 35 40 44 36 43 45 51 40 35 46 32 39 39 34 36 50
28 34 32 43 71 46 59 44 42 38 53 33 22 4 12 41 47 26 63 16 19 69 35 47 55 63 70 42 45 52 27 48 52 36 39 47 51 51 44 38 35 33 46 37 41 36 38 42 47
20 30 34 51 66 47 60 77 75 62 14 58 29 13 5 24 25 39 41 59 12 22 57 29 31 47 70 30 53 56 24 53 45 43 37 36 36 34 40 42 41 39 37 46 44 56 51 51 48
47 47 35 39 61 70 64 42 30 21 40 56 50 46 27 16 6 17 26 42 64 67 65 15 48 49 70 18 54 63 51 35 75 34 46 33 35 38 38 40 38 43 42 41 44 42 43 55 55
52 52 48 50 33 64 48 58 36 70 68 75 71 47 40 33 22 9 4 16 44 60 61 62 64 63 46 39 51 44 42 36 39 71 43 41 43 45 37 36 44 44 40 46 46 47 46 48 46
53 26 56 48 58 41 49 40 31 47 68 64 80 64 56 34 34 23 16 7 11 28 44 56 59 53 54 60 41 61 53 51 40 42 47 35 35 37 36 40 39 44 47 42 39 44 47 47 52
34 57 42 47 64 38 48 56 56 63 56 21 62 74 62 63 46 37 15 12 6 11 18 27 37 45 45 43 44 43 38 46 39 35 42 42 41 45 40 37 38 46 42 44 50 45 44 47 49
52 47 54 57 45 56 67 34 23 55 68 64 63 20 66 64 57 51 33 33 18 6 15 20 25 26 30 31 33 36 39 44 46 50 42 39 46 44 36 41 44 44 46 48 62 48 43 73 51
48 52 54 54 55 48 56 46 52 64 39 53 46 59 48 59 32 59 49 38 31 18 13 12 18 23 24 24 27 36 40 38 45 48 35 47 48 49 41 49 46 52 47 49 45 48 44 51 51
27 44 37 52 48 48 48 31 39 53 31 29 51 40 35 14 24 12 12 45 23 26 14 17 14 17 20 27 35 30 33 32 36 48 34 33 30 51 50 51 37 40 32 41 42 51 52 50 55
32 45 32 27 54 45 31 46 54 23 47 56 28 53 56 33 58 23 39 53 16 33 38 39 15 17 18 29 23 44 22 27 31 27 29 33 29 48 37 36 38 30 49 38 48 55 55 56 57
Wind_Direction
234 247 244 249 253 254 241 247 257 253 244 251 250 253 253 249 251 256 251 243 235 243 246 245 248 140 258 280 254 198 262 291 270 227 238 240 274 276 269 264 267 100 277 301 6 322 311 313 327
218 237 249 237 245 255 237 251 227 154 249 259 200 254 257 255 258 261 256 253 253 237 247 226 251 258 229 148 261 247 246 258 265 258 242 265 251 295 256 262 262 293 309 18 301 298 331 302 306
237 234 247 246 250 247 252 254 254 236 261 256 217 239 256 256 256 260 254 253 252 246 234 244 235 253 262 259 254 257 256 259 253 252 253 266 302 270 266 259 269 266 3 281 285 277 298 317 291
241 244 240 250 248 242 246 248 251 244 228 236 254 274 252 241 245 180 253 192 246 248 251 246 247 245 261 257 257 257 258 236 287 248 278 198 265 267 268 263 14 267 275 287 275 307 289 295 292
227 242 246 244 242 243 250 246 249 252 252 256 255 251 232 251 249 252 247 255 251 241 243 247 253 260 252 251 254 254 260 229 246 254 127 283 255 251 247 264 277 273 287 303 309 300 280 282 288
238 239 241 238 247 247 248 249 255 243 244 249 236 246 245 237 248 246 249 245 244 239 238 234 252 256 255 251 247 253 257 260 258 253 259 260 257 256 257 267 276 311 270 274 277 314 275 272 278
238 240 241 239 243 244 244 254 254 248 247 248 235 248 233 238 242 246 246 241 252 238 248 245 244 247 250 248 248 249 252 256 260 261 266 265 262 208 262 272 255 256 280 295 282 292 289 283 271
266 241 243 245 241 249 267 243 242 249 250 242 239 230 242 237 228 247 238 249 270 271 244 252 247 250 242 246 247 248 248 254 256 260 260 263 260 266 273 262 277 278 280 257 310 283 288 287 275
262 261 263 247 254 266 262 244 263 243 242 245 253 253 240 231 238 238 233 251 244 240 249 248 249 238 253 239 241 242 246 250 254 259 262 264 252 268 251 261 267 276 272 294 306 255 281 279 290
254 271 263 267 252 255 252 260 269 267 254 260 264 246 238 247 247 239 231 223 236 220 291 254 238 252 265 244 245 241 241 244 249 256 234 256 251 260 258 263 274 278 281 301 276 263 255 268 261
279 280 279 279 279 274 260 261 265 261 255 270 265 263 240 242 260 225 244 255 243 266 263 246 246 244 241 253 238 250 244 241 244 248 240 245 257 260 279 268 270 294 270 265 260 267 267 263 268
248 277 266 274 271 270 270 265 262 258 261 256 251 253 254 268 228 218 259 232 254 252 243 269 244 239 241 245 245 245 244 255 247 255 250 260 262 262 267 271 289 273 274 276 267 278 265 273 266
280 282 282 281 282 279 275 273 269 269 264 262 257 256 255 251 242 251 230 246 259 241 245 248 240 262 243 242 241 240 247 259 240 253 252 254 257 283 290 267 270 275 292 269 262 296 271 269 269
283 290 292 293 290 280 283 279 275 270 264 261 258 257 254 252 249 246 234 244 227 216 240 254 256 252 252 250 243 243 256 258 247 244 259 255 252 285 269 289 279 295 275 256 281 293 262 274 277
295 300 297 299 304 307 273 278 238 269 267 260 260 254 254 252 252 246 230 254 228 256 257 250 259 247 253 256 255 251 253 238 246 244 251 259 260 261 257 265 275 277 243 270 275 289 300 272 275
5 295 309 301 307 305 304 287 272 243 236 242 236 256 246 240 243 248 218 220 248 236 248 252 258 250 244 259 257 260 260 253 251 247 251 250 256 262 278 255 280 267 262 272 292 294 299 276 286
4 300 0 311 299 308 307 297 298 284 283 265 251 255 238 251 237 234 231 243 245 231 246 247 248 256 246 264 253 265 255 258 252 252 256 257 258 260 255 262 261 251 266 254 293 276 293 267 295
330 320 338 307 323 342 310 310 327 297 318 266 255 242 249 243 240 233 235 239 248 245 244 243 249 243 251 250 245 262 265 259 261 256 252 254 262 255 253 260 261 266 264 264 268 257 260 257 281
37 319 320 313 25 345 340 322 326 318 341 235 265 230 228 241 241 232 224 233 260 242 238 239 246 244 252 240 267 262 262 249 250 250 254 254 248 246 255 263 264 263 263 260 260 271 268 282 278
35 322 34 333 17 12 355 339 350 352 5 1 214 237 246 252 232 232 237 230 238 236 258 239 239 243 230 255 252 260 252 252 253 252 262 261 261 262 257 255 267 270 264 269 273 262 264 268 263
331 12 321 15 31 9 13 6 19 5 20 24 28 64 220 233 229 225 231 262 255 231 241 235 242 245 243 234 248 245 252 253 253 249 259 252 257 256 266 275 265 270 264 271 270 265 264 265 273
8 4 352 26 32 21 24 34 36 30 239 26 50 69 93 229 229 236 234 232 252 258 234 260 267 252 247 265 252 239 270 249 252 253 260 253 262 260 277 275 274 271 270 266 268 265 268 269 267
34 35 20 20 28 31 33 19 4 39 33 33 32 43 65 85 128 257 234 236 228 230 232 272 237 241 244 264 244 256 251 248 256 261 258 245 249 254 256 260 264 260 262 270 263 268 268 266 265
29 29 30 27 351 29 27 29 20 34 38 39 37 33 33 44 54 74 199 243 236 233 233 237 240 243 245 267 249 257 252 256 251 258 254 263 255 252 254 262 259 272 274 261 262 265 265 270 268
26 8 24 23 25 22 28 19 24 26 35 35 33 38 36 35 27 30 27 1 260 249 240 241 242 247 251 256 264 253 253 262 260 255 254 262 258 264 262 261 268 264 262 264 267 268 264 266 261
11 18 19 21 21 24 30 30 31 28 31 14 34 30 32 30 29 32 19 357 305 259 253 251 251 245 253 252 258 258 257 261 259 259 262 264 268 265 271 268 270 269 270 264 265 267 264 266 269
11 15 16 18 20 13 17 4 351 29 24 25 29 16 28 25 24 22 21 22 10 242 271 257 246 240 246 247 251 258 260 257 258 260 267 263 263 266 265 274 271 267 273 262 259 267 285 252 265
5 8 11 10 16 16 15 17 19 16 23 22 20 23 24 22 22 19 14 12 3 339 350 302 268 256 258 266 273 264 264 272 257 259 274 253 257 263 268 264 268 267 267 268 267 274 264 269 272
342 1 352 3 12 13 7 346 7 10 4 3 15 17 8 320 6 291 312 7 333 357 345 340 301 301 294 285 267 281 282 278 277 254 274 273 277 257 260 266 263 263 267 275 281 269 271 281 272
350 354 345 324 356 11 346 9 7 320 4 6 358 7 8 8 8 352 4 3 303 356 253 257 280 319 326 282 285 261 278 282 281 282 291 276 286 261 292 259 260 277 262 281 282 270 272 270 271